TimeCET,TemperatureF,Dew PointF,Humidity,Sea Level PressureIn,VisibilityMPH,Wind Direction,Wind SpeedMPH,Gust SpeedMPH,PrecipitationIn,Events,Conditions,WindDirDegrees,DateUTC
12:45 AM,28.4,26.6,93,30.36,5.0,NNE,3.5,-,N/A,,Unknown,30,2013-03-04 23:45:00
1:00 AM,28,26,87,30.38,5,NNE,4.5,,,,Partly Cloudy,30,2013-03-05 00:00:00
1:45 AM,26.6,24.8,93,30.36,5.0,North,1.2,-,N/A,,Unknown,10,2013-03-05 00:45:00
2:45 AM,24.8,24.8,100,30.36,5.0,North,2.3,-,N/A,,Unknown,10,2013-03-05 01:45:00
3:45 AM,24.8,24.8,100,30.36,5.0,NNE,2.3,-,N/A,,Unknown,20,2013-03-05 02:45:00
4:45 AM,23.0,23.0,100,30.36,3.7,NNE,1.2,-,N/A,,Unknown,30,2013-03-05 03:45:00
5:15 AM,24.8,24.8,100,30.36,3.7,NNE,1.2,-,N/A,,Unknown,30,2013-03-05 04:15:00
5:45 AM,24.8,24.8,100,30.36,3.7,NNE,3.5,-,N/A,,Unknown,30,2013-03-05 04:45:00
6:15 AM,24.8,24.8,100,30.36,2.8,North,1.2,-,N/A,,Mist,360,2013-03-05 05:15:00
6:45 AM,23.0,23.0,100,30.36,2.8,NE,2.3,-,N/A,,Mist,40,2013-03-05 05:45:00
7:00 AM,24,22,91,30.38,3,NE,2.2,,,,Mist,40,2013-03-05 06:00:00
7:15 AM,26.6,26.6,100,30.36,2.8,NE,4.6,-,N/A,,Mist,50,2013-03-05 06:15:00
7:45 AM,33.8,26.6,75,30.36,3.7,North,3.5,-,N/A,,Unknown,360,2013-03-05 06:45:00
8:15 AM,39.2,24.8,56,30.36,3.7,East,3.5,-,N/A,,Unknown,100,2013-03-05 07:15:00
8:45 AM,39.2,23.0,52,30.36,-9999.0,ESE,8.1,-,N/A,,Clear,110,2013-03-05 07:45:00
9:15 AM,39.2,23.0,52,30.36,-9999.0,SE,9.2,-,N/A,,Clear,130,2013-03-05 08:15:00
9:45 AM,42.8,23.0,46,30.36,-9999.0,ESE,10.4,-,N/A,,Clear,120,2013-03-05 08:45:00
10:45 AM,46.4,26.6,46,30.36,-9999.0,SE,13.8,-,N/A,,Clear,130,2013-03-05 09:45:00
11:45 AM,48.2,23.0,37,30.33,-9999.0,SSE,15.0,-,N/A,,Clear,150,2013-03-05 10:45:00
12:15 PM,50.0,24.8,37,30.33,-9999.0,SSE,15.0,-,N/A,,Clear,150,2013-03-05 11:15:00
12:45 PM,50.0,24.8,37,30.30,-9999.0,SSE,16.1,-,N/A,,Clear,160,2013-03-05 11:45:00
1:00 PM,50,25,25,30.31,25,SSE,15.7,,,,Partly Cloudy,160,2013-03-05 12:00:00
1:15 PM,51.8,26.6,38,30.30,-9999.0,SSE,16.1,-,N/A,,Clear,160,2013-03-05 12:15:00
1:45 PM,51.8,26.6,38,30.27,-9999.0,SSE,16.1,-,N/A,,Clear,150,2013-03-05 12:45:00
2:15 PM,53.6,26.6,35,30.27,-9999.0,SSE,17.3,-,N/A,,Clear,160,2013-03-05 13:15:00
2:45 PM,53.6,26.6,35,30.27,-9999.0,SSE,15.0,-,N/A,,Clear,160,2013-03-05 13:45:00
3:15 PM,53.6,26.6,35,30.24,-9999.0,SSE,15.0,-,N/A,,Clear,160,2013-03-05 14:15:00
3:45 PM,53.6,28.4,38,30.24,-9999.0,SSE,15.0,-,N/A,,Clear,150,2013-03-05 14:45:00
4:15 PM,53.6,28.4,38,30.24,-9999.0,SE,13.8,-,N/A,,Clear,140,2013-03-05 15:15:00
4:45 PM,51.8,26.6,38,30.24,-9999.0,SE,13.8,-,N/A,,Clear,140,2013-03-05 15:45:00
5:15 PM,48.2,28.4,46,30.21,-9999.0,SE,9.2,-,N/A,,Clear,140,2013-03-05 16:15:00
5:45 PM,46.4,28.4,50,30.21,-9999.0,SE,10.4,-,N/A,,Clear,140,2013-03-05 16:45:00
6:15 PM,42.8,28.4,57,30.21,-9999.0,SE,10.4,-,N/A,,Clear,130,2013-03-05 17:15:00
6:45 PM,42.8,28.4,57,30.21,-9999.0,SE,10.4,-,N/A,,Clear,130,2013-03-05 17:45:00
7:00 PM,43,28,43,30.22,12,SE,11.2,,,,Partly Cloudy,130,2013-03-05 18:00:00
7:15 PM,44.6,26.6,49,30.21,-9999.0,SE,10.4,-,N/A,,Clear,140,2013-03-05 18:15:00
7:45 PM,42.8,26.6,53,30.21,-9999.0,SE,11.5,-,N/A,,Clear,140,2013-03-05 18:45:00
8:15 PM,41.0,26.6,57,30.21,-9999.0,SE,8.1,-,N/A,,Clear,140,2013-03-05 19:15:00
8:45 PM,39.2,26.6,61,30.21,-9999.0,SE,10.4,-,N/A,,Clear,130,2013-03-05 19:45:00
9:45 PM,39.2,26.6,61,30.21,-9999.0,SE,11.5,-,N/A,,Clear,140,2013-03-05 20:45:00
10:45 PM,37.4,28.4,70,30.18,-9999.0,SE,12.7,-,N/A,,Clear,140,2013-03-05 21:45:00
11:45 PM,35.6,28.4,75,30.18,-9999.0,SE,10.4,-,N/A,,Clear,140,2013-03-05 22:45:00